Cancun, Mexico

11:07 PM on June 22, 2017 (GMT +0000)
Cancun International

Weather History for MMUN - December, 2013

Change the Weather History Date:

Monday, December 9, 2013

  Actual Average Record
Temperature  
Mean Temperature 76 °F -  
Max Temperature 84 °F 81 °F 89 °F (1997)
Min Temperature 68 °F 64 °F 59 °F (2010)
Cooling Degree Days 11    
Growing Degree Days 26 (Base 50)    
Moisture  
Dew Point 71 °F    
Average Humidity 83    
Maximum Humidity 100    
Minimum Humidity 70    
Precipitation  
Precipitation 0.00 in - - ()
Sea Level Pressure  
Sea Level Pressure 30.02 in    
Wind  
Wind Speed 4 mph ()    
Max Wind Speed 15 mph    
Max Gust Speed -    
Visibility 7.0 miles    
Events      
Averages and records for this station are not official NWS values.
T = Trace of Precipitation, MM = Missing Value Source: Averaged Metar Reports

Daily Weather History Graph

Daily Weather History Graph

Search for Another Location

Airport or City:

Trip Planner

Search our weather history database for the weather conditions in past years. The results will help you decide how hot, cold, wet, or windy it might be!

Date:

Astronomy

Dec. 09, 2013 Rise Set
Actual Time 6:13 AM CST 5:06 PM CST
Civil Twilight 5:49 AM CST 5:30 PM CST
Nautical Twilight 5:21 AM CST 5:58 PM CST
Astronomical Twilight 4:54 AM CST 6:25 PM CST
Moon 11:49 AM CST (12/9) No Moon Set
Length of Visible Light 11h 41m
Length of Day
10h 53m
Waxing Crescent, 51% of the Moon is Illuminated
Dec 9
Waxing Crescent
Dec 17
Full
Dec 25
Last Quarter
Jan 1
New
Jan 7
First Quarter

Hourly Weather History & Observations

Time (CST) Temp. Heat Index Dew Point Humidity Pressure Visibility Wind Dir Wind Speed Gust Speed Precip Events Conditions
12:40 AM 68.0 °F - 68.0 °F 100% 30.04 in 7.0 mi NW 2.3 mph - N/A   Clear
1:46 AM 69.8 °F - 68.0 °F 94% 30.02 in 7.0 mi Calm Calm - N/A   Clear
2:48 AM 68.0 °F - 68.0 °F 100% 29.98 in 7.0 mi Calm Calm - N/A   Scattered Clouds
3:44 AM 69.8 °F - 68.0 °F 94% 30.01 in 7.0 mi Calm Calm - N/A   Scattered Clouds
4:43 AM 69.8 °F - 68.0 °F 94% 30.01 in 7.0 mi Calm Calm - N/A   Scattered Clouds
5:41 AM 69.8 °F - 69.8 °F 100% 29.99 in 7.0 mi NW 3.5 mph - N/A   Scattered Clouds
6:44 AM 68.0 °F - 68.0 °F 100% 30.04 in 7.0 mi Calm Calm - N/A   Scattered Clouds
7:40 AM 75.2 °F - 73.4 °F 94% 30.06 in 7.0 mi Calm Calm - N/A   Mostly Cloudy
8:44 AM 82.4 °F 89.5 °F 75.2 °F 79% 30.06 in 7.0 mi ESE 13.8 mph - N/A   Scattered Clouds
9:42 AM 82.4 °F 88.2 °F 73.4 °F 74% 30.07 in 7.0 mi ESE 9.2 mph - N/A   Mostly Cloudy
10:41 AM 84.2 °F 92.3 °F 75.2 °F 74% 30.05 in 7.0 mi ESE 12.7 mph - N/A   Scattered Clouds
11:49 AM 84.2 °F 90.9 °F 73.4 °F 70% 30.01 in 7.0 mi ESE 10.4 mph - N/A   Mostly Cloudy
12:48 PM 84.2 °F 90.9 °F 73.4 °F 70% 30.00 in 7.0 mi ESE 15.0 mph - N/A   Mostly Cloudy
1:48 PM 84.2 °F 90.9 °F 73.4 °F 70% 29.98 in 7.0 mi SSE 9.2 mph - N/A   Scattered Clouds
2:51 PM 80.6 °F 85.4 °F 73.4 °F 79% 29.95 in 7.0 mi ESE 5.8 mph - N/A   Scattered Clouds
3:55 PM 80.6 °F 85.4 °F 73.4 °F 79% 29.98 in 7.0 mi East 9.2 mph - N/A   Scattered Clouds
4:48 PM 78.8 °F - 71.6 °F 78% 30.00 in 7.0 mi SE 6.9 mph - N/A   Scattered Clouds
5:43 PM 77.0 °F - 69.8 °F 78% 29.98 in 7.0 mi ESE 5.8 mph - N/A   Scattered Clouds
6:46 PM 78.8 °F - 73.4 °F 83% 30.02 in 7.0 mi ESE 6.9 mph - N/A   Scattered Clouds
7:42 PM 78.8 °F - 71.6 °F 78% 30.04 in 7.0 mi ESE 6.9 mph - N/A   Scattered Clouds
8:42 PM 78.8 °F - 71.6 °F 78% 30.04 in 7.0 mi ESE 9.2 mph - N/A   Partly Cloudy
9:48 PM 78.8 °F - 71.6 °F 78% 30.06 in 7.0 mi East 5.8 mph - N/A   Partly Cloudy
10:47 PM 78.8 °F - 69.8 °F 74% 30.05 in 7.0 mi ESE 5.8 mph - N/A   Scattered Clouds
11:46 PM 78.8 °F - 69.8 °F 74% 30.00 in 7.0 mi East 5.8 mph - N/A   Scattered Clouds